User: anonymous   Login
Location: Newark
(54.0500°N, 12.8333°E)
Time: 20:57:59
(UTC+00:00)
Language:

Tiros 1 despin weight - Orbit

View from above orbital plane
View from above orbital plane
View from above satellite
View from above satellite

Ground track
Ground track

The orbit data is extracted from the following two-line orbital elements,

1   115U 60002D   20028.89846339 -.00000089 +00000-0 +16570-4 0  9998
2   115 048.1651 230.0803 0034705 349.1264 010.8894 14.83529737170948
Epoch (UTC): 28 January 2020 21:33:47
Eccentricity: 0.0034705
inclination: 48.1651°
perigee height: 594 km
apogee height: 642 km
right ascension of ascending node: 230.0803°
argument of perigee: 349.1264°
revolutions per day: 14.83529737
mean anomaly at epoch: 10.8894°
orbit number at epoch: 17094

The dashed part of the orbit path shows where the satellite is in the earth's shadow,  

DLR